SCP
0 0 0 0 0 0 0 0 0 0 0 0 0 0 0 0 0 0 0 0 0 0 0 0 0 0 0 0 0 0 0 0 0 0 0 0 0 0 0 0 0 0 0 0 0 0 0 0 0 0 0 0 0 0
0 0 0 0 0 0 0 0 0 0 0 0 0 0 0 0 0 0 0 0 0 0 0 0 0 0 0 0 0 0 0 0 0 0 0 0 0 0 0 0 0 0 0 0 0 0 0 0 0 0 0 0 0 0
0 0 0 0 0 0 0 0 0 0 0 0 0 0 0 0 0 0 0 0 0 0 0 0 0 0 0 0 0 0 0 0 0 0 0 0 0 0 0 0 0 0 0 0 0 0 0 0 0 0 0 0 0 0
0 0 0 0 0 0 0 0 0 0 0 0 0 0 0 0 0 0 0 0 0 0 0 0 0 0 0 0 0 0 0 0 0 0 0 0 0 0 0 0 0 0 0 0 0 0 0 0 0 0 0 0 0 0
0 0 0 0 0 0 0 0 0 0 0 0 0 0 0 0 0 0 0 0 0 0 0 0 0 0 0 0 0 0 0 0 0 0 0 0 0 0 0 0 0 0 0 0 0 0 0 0 0 0 0 0 0 0
0 0 0 0 0 0 0 0 0 0 0 0 0 0 0 0 0 0 0 0 0 0 0 0 0 0 0 0 0 0 0 0 0 0 0 0 0 0 0 0 0 0 0 0 0 0 0 1 0 0 0 0 0 0
0 0 0 0 0 0 0 0 0 0 0 0 0 0 0 0 0 0 0 0 0 0 0 0 0 0 0 0 0 0 0 0 0 0 0 0 0 0 0 0 0 0 0 0 0 0 0 0 0 0 0 0 0 0
0 0 0 0 0 0 0 0 0 0 0 0 0 0 0 0 0 0 0 0 0 0 0 0 0 0 0 0 0 0 0 0 0 0 0 0 0 0 0 0 0 0 0 0 0 0 0 0 0 0 0 0 0 0
0 0 0 0 0 0 0 0 0 0 0 0 0 -0 0 0 0 0 0 0 0 0 0 0 0 0 0 0 0 0 0 0 0 0 0 0 0 0 0 0 0 0 0 0 0 0 0 0 0 0 0 0 0 0
0 0 0 0 0 0 0 0 0 0 0 -0 0 0 0 0 0 0 0 0 0 0 0 0 0 0 0 0 0 0 0 0 0 0 0 0 0 0 0 0 0 0 0 0 0 0 0 0 0 0 0 0 0 0
0 0 0 0 0 0 0 0 0 0 0 0 0 0 0 0 0 0 0 0 0 0 0 0 0 0 0 0 0 0 0 0 0 0 0 0 0 0 -0 0 0 0 0 0 0 0 0 0 0 0 0 0 0 0
0 0 0 0 0 0 0 0 0 0 0 0 0 0 0 0 0 0 0 0 0 0 0 0 0 0 0 0 0 0 0 0 0 0 0 0 0 0 0 0 0 0 0 0 0 0 0 0 0 0 0 0 0 0
0 0 0 0 0 0 0 0 0 0 0 0 0 0 0 0 0 0 0 0 0 0 0 0 0 0 0 0 0 0 0 0 0 0 0 0 0 0 0 0 1 0 0 0 0 0 0 0 0 0 0 0 0 0
0 0 0 0 0 0 0 0 0 0 0 0 0 0 0 0 0 0 0 0 0 0 0 -0 -0 -0 -0 -0 0 -0 -0 -0 0 0 0 0 0 0 0 0 0 0 0 0 0 0 0 0 0 0 0 0 0 2
0 0 0 0 0 0 0 0 0 0 0 0 0 0 0 0 0 0 0 -0 -0 -0 -0 -0 -0 -0 0 0 -0 -0 -0 0 0 -0 0 0 0 0 0 0 0 0 0 0 0 0 0 0 0 0 0 0 1 2
0 0 0 0 0 0 0 0 0 0 0 0 0 0 0 0 0 -0 0 0 -0 0 0 0 0 0 0 -0 0 0 0 0 -0 -0 -0 -0 -0 -0 -0 0 0 0 0 0 0 0 0 1 0 0 0 0 2 1
0 0 0 0 0 0 0 0 0 0 0 0 0 0 0 0 -0 -0 0 -0 0 0 0 0 0 0 0 0 0 0 0 0 -0 -0 -0 0 0 0 0 0 0 0 0 0 0 0 0 0 0 0 0 1 0 1
0 0 0 0 0 0 0 0 0 0 0 0 0 0 0 -0 -0 -0 -0 -0 0 0 0 0 0 0 0 0 0 0 0 -0 -0 0 0 0 0 0 0 0 0 0 0 0 0 0 0 0 1 1 0 1 1 0
0 0 0 0 0 0 0 0 0 0 0 0 0 0 0 -0 -0 0 -0 0 0 0 0 0 0 0 0 0 -0 0 0 0 -0 -0 0 0 0 -0 0 0 0 0 0 0 0 1 0 0 1 1 0 0 0 0
0 0 0 0 0 0 0 0 0 0 0 0 0 0 0 -0 0 0 0 0 0 0 0 0 0 0 0 0 0 0 0 -0 -0 -0 -0 0 -0 -0 0 0 0 0 0 0 1 1 0 1 1 1 0 0 0 0
0 0 0 0 0 0 0 0 0 0 0 0 0 0 0 0 0 0 0 0 0 0 0 0 0 0 -0 0 0 -0 -0 0 0 -0 -0 -0 -0 0 0 0 0 0 0 1 1 0 1 1 1 0 0 0 0 0
0 0 0 0 0 0 0 0 0 0 -0 -0 -0 0 0 0 0 0 0 0 0 0 0 0 0 0 0 0 0 -0 0 0 -0 -0 -0 0 0 0 0 0 0 0 1 1 1 1 0 0 0 0 0 0 0 0
0 0 0 0 0 0 0 0 0 -0 0 -0 -0 0 0 0 0 0 0 -0 0 0 0 0 -0 0 0 -0 -0 0 0 -0 0 0 0 0 0 0 0 0 0 0 0 0 0 0 0 0 0 0 0 0 0 0
0 0 0 0 0 0 0 0 0 0 0 -0 0 0 0 0 0 0 -0 -0 0 0 0 0 -0 0 -0 0 0 0 0 0 0 0 0 0 0 0 0 0 0 0 0 0 0 0 0 0 0 0 0 0 0 0
0 0 0 0 0 0 0 0 -0 0 -0 -0 0 0 0 0 0 -0 -0 -0 0 0 0 0 0 0 0 0 0 0 0 0 0 0 0 0 0 0 0 0 0 0 0 0 0 0 0 0 -0 0 -0 0 0 0
0 0 0 0 0 0 0 -0 -0 0 0 -0 -0 -0 0 0 -0 0 0 0 0 0 0 0 0 0 0 0 0 0 0 0 0 0 0 0 0 0 0 0 0 0 0 0 0 0 0 0 -0 -0 0 0 0 0
0 0 0 0 0 0 -0 -0 -0 -0 -0 -0 -0 -0 -0 0 0 0 0 0 0 0 0 0 0 0 0 0 0 0 0 0 0 0 0 0 0 0 0 0 -0 0 0 0 0 0 0 0 0 0 0 0 0 0
0 0 0 0 0 0 0 0 -0 -0 -0 -0 0 0 0 0 0 0 0 0 0 0 0 0 0 0 0 0 0 0 0 0 0 0 0 1 0 0 0 0 0 0 0 0 0 0 0 0 0 0 0 0 0 0
0 0 0 0 0 0 0 0 -0 0 0 0 0 0 0 0 0 0 0 0 0 0 0 0 0 0 0 0 0 0 0 0 0 -0 -0 -0 -0 0 0 0 0 0 0 0 0 0 0 0 0 0 0 0 -0 0
0 0 0 0 0 0 -0 -0 0 0 0 0 0 0 0 0 0 0 0 0 0 0 0 0 0 0 0 0 0 0 0 0 0 0 0 1 1 0 0 0 0 0 0 0 0 0 0 0 0 0 0 0 0 -0
0 0 0 0 0 0 0 0 0 0 0 0 0 0 0 0 0 0 0 0 0 0 0 0 0 0 0 0 0 0 0 0 0 0 0 0 0 0 0 0 0 0 0 0 0 0 0 0 -0 -0 0 0 0 0
0 0 0 0 0 0 0 0 0 0 0 0 0 0 0 0 0 0 0 0 0 0 0 0 0 0 0 0 0 0 0 0 0 0 0 0 0 0 0 0 0 0 0 0 0 0 0 0 0 -0 -0 -0 0 0
0 0 0 0 0 0 0 0 0 0 0 0 0 0 0 0 0 0 0 0 0 0 0 0 0 0 0 0 0 0 0 0 0 0 0 0 0 0 0 0 0 0 0 0 -0 0 0 0 -0 -0 -0 -0 -0 -0
Wind_Speed_500mb
30 31 32 33 33 33 34 35 36 37 39 40 40 41 41 40 37 29 16 25 20 18 43 31 28 32 31 31 19 14 16 28 24 27 29 33 35 39 41 46 44 31 25 26 31 37 37 20 13 16 12 10 13 12
30 31 31 32 32 32 33 34 34 35 36 37 37 38 37 38 37 32 20 24 24 20 32 43 43 41 36 27 32 28 38 30 14 14 17 23 30 32 40 39 44 40 32 26 31 20 30 13 18 19 29 17 8 17
30 31 31 30 28 30 32 34 34 34 33 34 34 33 33 33 34 35 24 31 32 23 48 25 15 12 5 16 29 44 38 34 40 39 25 20 28 22 29 33 36 39 48 35 33 36 34 19 19 23 19 14 17 19
32 30 29 28 29 31 33 33 33 33 33 33 34 35 33 32 31 31 20 24 21 22 14 8 10 14 12 26 28 31 48 60 40 33 30 18 22 25 26 33 30 28 32 34 33 29 49 17 27 27 25 27 29 22
30 30 30 31 32 34 34 35 35 35 35 35 35 35 35 33 30 29 17 12 13 16 16 39 50 36 24 21 26 29 39 41 39 37 26 25 38 33 33 27 25 29 32 19 18 33 35 39 34 30 39 28 31 34
33 33 33 33 34 34 34 34 35 34 34 35 35 34 33 32 30 24 6 2 7 20 18 10 24 28 21 27 32 34 38 43 46 47 37 50 53 40 22 29 47 54 56 43 29 18 8 12 12 10 25 31 33 34
33 34 33 32 31 32 33 34 36 36 37 37 35 34 33 32 27 10 10 10 19 19 12 16 14 11 11 21 25 28 30 29 41 47 46 49 47 39 29 36 41 40 40 60 55 29 20 20 23 19 14 14 22 31
33 32 30 29 31 33 34 37 38 38 38 37 37 37 34 19 6 1 11 7 9 12 10 9 11 30 3 23 21 24 28 35 39 38 42 33 44 49 30 37 49 58 58 51 45 49 31 31 30 17 18 18 25 30
32 28 27 29 32 34 36 38 39 39 39 38 34 22 6 7 4 8 17 18 15 12 11 14 20 21 14 30 27 40 30 20 35 25 31 34 25 26 26 55 57 52 49 51 50 47 42 46 40 32 32 25 26 31
28 27 28 32 33 34 35 37 38 40 39 31 20 10 6 2 14 16 8 6 6 8 10 22 27 19 31 33 29 25 24 20 19 21 40 27 29 51 51 53 45 38 51 54 56 53 51 53 52 51 42 36 36 37
27 29 30 31 32 31 31 33 35 41 28 22 13 8 15 26 8 10 7 10 12 10 14 17 16 13 15 18 17 15 13 13 21 23 26 25 25 31 50 56 61 61 56 52 45 44 47 48 51 55 53 49 44 43
29 30 30 30 30 29 25 29 33 27 22 24 23 22 11 4 9 9 8 9 9 8 5 12 13 20 28 27 14 14 12 10 16 12 13 21 18 23 30 24 18 17 47 63 63 64 59 53 47 46 51 49 44 41
29 30 28 29 29 24 24 27 26 32 34 9 6 6 5 5 4 10 9 10 4 14 9 21 18 21 23 5 11 9 10 14 24 24 31 15 42 50 54 52 40 29 33 33 37 43 48 56 51 41 44 45 40 40
29 28 27 27 22 21 25 29 25 27 13 6 7 6 8 9 11 8 14 9 6 15 29 33 33 25 37 17 9 9 10 11 10 24 24 14 39 51 55 51 47 48 44 39 39 43 48 49 50 52 44 43 42 51
27 26 26 24 21 25 28 28 25 19 9 8 8 8 13 21 19 17 19 22 24 23 27 31 33 28 12 9 7 7 8 12 11 3 5 24 36 47 57 54 54 54 49 40 42 46 48 47 52 53 49 45 47 56
26 23 18 24 27 30 33 31 24 14 9 9 13 15 27 25 25 15 16 22 19 16 22 28 10 8 10 6 5 13 9 12 13 11 27 43 53 70 78 69 66 59 54 50 44 46 48 44 43 49 50 44 59 66
23 10 27 36 33 33 31 20 11 10 10 9 16 22 28 32 27 24 24 23 21 19 16 17 8 12 5 7 8 9 14 25 43 57 58 56 69 80 80 76 75 59 52 51 43 47 45 46 37 54 50 53 55 64
13 22 34 35 35 28 23 9 8 9 13 22 26 24 21 27 30 28 26 24 21 25 18 10 14 9 10 10 16 24 47 57 53 61 67 62 49 47 72 73 62 51 48 45 41 48 43 32 40 54 60 63 67 63
19 27 30 29 25 18 10 6 8 11 16 21 26 29 30 34 32 28 25 22 27 27 10 9 14 16 22 41 47 57 59 63 63 61 48 65 80 84 79 73 60 47 45 42 41 46 45 36 56 63 66 68 66 68
23 22 21 17 13 9 9 7 8 13 15 16 34 29 27 38 36 31 29 32 31 15 14 10 16 48 49 58 63 68 72 75 66 63 64 65 86 91 77 60 51 42 39 40 44 45 47 48 60 64 67 68 73 71
19 14 17 15 17 17 10 8 11 16 22 21 29 31 36 28 30 28 29 27 32 13 17 44 62 65 72 67 74 79 67 52 50 58 83 71 68 63 60 38 31 36 40 40 46 53 67 64 70 68 68 65 66 65
16 22 19 19 8 8 11 13 13 18 16 25 37 24 20 26 26 15 17 31 25 50 61 63 65 55 66 76 72 59 52 72 74 70 59 68 64 44 39 24 30 40 40 44 58 59 56 70 72 74 80 79 67 67
18 16 10 9 7 7 11 8 8 9 9 10 20 11 9 11 13 17 10 21 35 45 38 42 51 59 64 69 71 63 66 59 66 66 60 50 44 50 23 23 37 50 59 63 77 82 86 84 81 83 75 67 66 63
17 7 6 6 10 9 7 9 11 9 9 7 6 8 9 9 18 10 9 19 17 32 41 42 53 53 65 77 67 62 58 71 68 55 30 26 4 24 34 42 78 90 83 78 93 94 86 83 80 67 67 70 62 52
7 8 8 12 12 9 8 7 9 10 8 9 11 9 6 6 5 7 9 15 27 40 47 49 54 61 69 71 77 77 70 50 22 25 34 57 58 80 77 78 79 87 98 104 91 88 75 70 67 70 65 61 56 52
8 11 12 7 6 7 8 7 5 6 10 6 9 10 3 3 6 10 7 21 41 45 49 55 55 63 72 73 75 77 64 44 42 51 64 69 73 86 90 95 90 79 75 78 78 73 72 72 64 61 57 53 49 46
8 11 13 11 10 12 13 20 23 18 10 7 7 5 1 5 7 9 17 27 41 54 50 43 44 48 60 72 67 51 63 68 74 66 61 69 68 77 78 82 81 70 68 73 74 65 60 58 55 52 50 44 39 37
14 10 11 10 12 15 10 11 7 7 7 8 8 6 5 7 7 20 37 54 51 35 31 40 41 42 55 46 53 58 68 75 86 88 84 82 80 84 82 83 84 75 66 60 57 56 55 54 53 50 45 42 38 34
10 9 9 9 14 10 12 13 11 12 7 9 8 6 12 14 38 51 52 44 28 21 26 32 38 50 42 44 54 58 56 60 69 70 70 71 67 58 54 55 61 56 52 59 56 55 54 53 51 47 42 38 35 33
11 18 9 8 9 11 16 24 19 21 24 26 28 36 45 41 38 31 24 18 18 14 18 25 35 48 42 47 44 50 51 52 45 39 45 47 41 56 53 49 48 48 48 46 44 46 47 43 40 37 33 31 29 27
8 17 10 12 12 18 30 26 32 36 40 39 33 36 38 34 23 9 9 5 4 6 12 20 26 34 29 31 32 31 30 27 29 25 29 33 33 37 32 33 40 39 39 41 39 35 31 29 26 22 20 23 18 15
17 21 11 7 9 11 15 14 10 15 14 12 17 17 16 17 17 6 5 3 5 6 9 16 19 17 27 28 15 20 22 10 14 13 19 31 25 28 35 31 31 30 29 27 26 23 20 20 20 19 17 16 13 8
14 19 20 11 9 7 7 7 8 8 15 11 12 19 20 11 6 5 1 8 7 4 4 10 13 13 14 12 15 15 15 6 14 15 23 25 17 14 18 23 19 24 25 26 25 20 15 14 15 12 13 12 13 12
Wind_Direction_500mb
344 345 346 347 349 350 351 352 354 355 356 358 1 4 5 5 8 14 358 351 358 296 286 300 290 281 283 272 273 315 302 236 259 250 244 246 247 250 253 246 248 211 216 236 247 255 248 252 239 233 293 150 172 185
343 343 342 342 344 346 348 349 347 348 350 351 354 358 0 1 2 8 340 333 322 274 269 294 286 267 260 263 285 279 276 310 323 307 256 268 257 249 246 246 240 244 241 225 242 251 228 228 293 263 249 320 174 179
344 342 341 342 346 348 348 348 347 347 346 345 345 348 351 353 353 355 346 332 334 294 299 266 292 239 271 267 257 256 264 271 272 272 300 291 268 269 250 247 254 260 227 252 244 247 270 183 245 269 266 207 264 196
341 344 346 343 342 343 342 342 341 342 341 340 339 338 341 343 343 343 343 326 344 309 283 325 328 295 257 284 275 256 257 268 277 285 276 264 269 261 266 281 274 262 260 251 254 253 269 228 262 240 244 235 226 238
343 341 338 337 336 336 338 339 339 338 336 334 332 329 331 335 338 337 325 308 346 347 310 303 298 284 268 265 266 262 254 261 262 255 247 250 260 270 273 287 270 267 259 258 236 246 257 256 241 248 241 230 232 224
337 337 336 335 335 335 337 336 334 333 332 331 330 327 328 329 335 351 239 313 328 341 302 301 316 285 270 272 275 265 255 251 250 251 254 253 256 256 255 251 254 256 273 278 273 296 331 333 340 253 263 245 224 214
334 334 333 333 335 335 334 334 333 332 332 329 326 321 318 316 315 276 313 260 291 333 282 291 286 166 293 286 268 278 258 251 247 248 243 255 258 237 252 258 254 245 261 258 266 260 247 283 281 226 233 216 177 182
334 332 331 333 333 333 332 332 333 331 329 327 323 317 315 321 13 334 270 289 336 307 272 274 276 280 18 316 312 304 293 274 263 248 249 246 241 251 261 259 250 258 266 271 275 256 268 260 260 237 220 192 192 177
331 331 332 332 333 333 332 331 332 333 332 331 328 335 15 36 267 277 279 295 301 255 283 288 291 300 348 315 308 291 263 269 268 256 240 245 247 230 233 240 254 259 258 265 259 254 253 255 257 251 253 215 214 193
330 329 330 331 333 332 332 335 338 339 342 359 13 306 253 10 295 310 294 212 239 222 237 267 283 295 319 318 300 309 285 260 262 259 248 242 246 250 250 250 257 246 242 247 251 255 256 255 255 246 238 240 239 221
326 327 327 329 329 331 336 340 342 349 6 349 325 295 308 313 304 237 232 226 190 233 203 260 292 317 321 304 319 296 290 306 283 271 253 255 249 241 238 247 252 250 249 254 253 250 254 257 252 248 244 234 240 238
320 323 325 324 326 327 330 338 342 354 329 309 298 293 311 272 236 231 244 236 220 254 57 337 313 314 310 303 281 304 296 269 256 274 266 253 259 295 319 306 285 305 247 251 254 256 255 258 254 252 250 245 229 238
316 320 319 321 323 322 324 328 331 344 349 326 318 278 260 235 304 220 218 248 355 341 312 275 292 279 286 316 274 256 252 250 285 269 261 276 14 0 353 344 326 295 296 292 281 272 256 246 248 247 238 247 221 212
313 316 316 317 317 320 322 327 325 336 339 289 285 284 252 194 256 266 310 355 272 294 301 310 312 298 293 287 255 268 264 309 256 247 252 51 0 346 339 328 326 307 293 294 283 273 257 254 246 244 238 247 213 164
311 314 312 309 307 308 317 322 319 323 290 268 239 251 234 258 287 289 290 294 295 305 311 307 300 282 270 252 238 279 274 253 242 273 301 329 329 332 325 314 308 302 296 288 273 272 267 245 237 225 230 236 191 167
312 323 307 318 316 313 311 312 314 281 255 240 234 247 266 269 281 306 307 303 311 299 302 291 270 270 237 257 249 225 243 244 282 295 302 311 308 314 306 302 298 292 283 281 276 267 269 269 226 218 216 217 166 167
314 313 290 307 314 315 314 316 274 234 245 231 241 245 269 279 288 312 314 311 311 290 280 285 263 235 199 237 231 240 254 273 295 299 295 291 292 289 290 287 295 286 275 274 272 258 265 251 252 193 185 163 162 163
310 299 297 312 322 323 298 254 255 254 248 249 254 269 281 291 293 292 287 289 287 250 260 254 277 245 235 239 253 274 288 290 290 285 287 287 291 298 294 289 290 280 263 262 258 251 260 239 185 163 166 161 155 157
275 263 283 303 315 308 285 247 246 267 257 272 278 284 287 288 291 290 286 275 255 231 221 247 255 242 237 253 267 279 285 292 298 294 298 301 296 297 293 289 283 270 258 255 240 238 229 200 160 161 159 157 156 152
299 300 302 305 290 275 272 254 249 267 280 299 302 291 300 297 289 279 272 258 242 221 215 226 245 262 281 291 291 290 292 297 300 300 294 289 293 293 292 287 270 256 240 229 223 221 197 165 160 157 157 155 151 150
324 291 311 307 267 236 270 280 256 264 293 294 290 296 297 292 276 275 268 258 229 216 239 246 258 267 273 283 294 300 303 299 297 298 293 290 293 291 292 275 252 225 217 212 197 189 168 161 145 148 148 145 145 144
266 282 293 289 257 243 253 244 255 287 281 280 299 304 290 287 293 296 268 246 242 249 251 260 266 288 294 297 304 311 305 301 298 291 290 300 291 291 291 257 222 204 188 178 162 144 141 135 138 139 139 135 137 141
275 287 272 241 248 247 260 257 257 256 265 289 306 295 259 273 284 324 263 258 253 263 283 299 302 297 299 310 317 314 320 308 298 296 302 309 296 294 257 200 180 184 162 144 133 134 128 130 131 132 130 135 141 141
276 249 245 244 225 265 245 231 231 264 277 269 255 265 272 266 312 292 265 285 306 315 311 315 321 320 322 325 321 323 319 320 323 321 317 312 26 158 140 125 122 125 123 129 135 132 132 130 129 135 141 140 138 139
246 230 217 246 229 234 243 241 232 235 264 265 286 269 259 310 286 271 262 303 323 318 323 325 329 329 325 320 320 320 329 341 12 24 56 103 106 113 123 126 126 127 129 127 128 126 130 135 143 141 140 138 139 139
246 214 206 240 242 236 249 271 254 278 299 277 257 265 279 315 269 263 279 318 327 328 328 325 329 327 327 330 331 347 25 63 77 99 100 94 99 100 105 111 115 115 120 126 133 135 135 137 141 141 140 140 141 142
247 238 228 236 261 281 281 270 278 281 278 260 276 270 208 255 254 265 303 318 321 322 322 331 332 336 341 353 22 62 66 72 81 99 102 99 106 108 107 111 117 121 124 124 127 133 135 134 135 135 138 143 148 146
241 249 216 198 218 238 263 287 273 252 227 242 265 256 217 231 274 325 325 319 321 335 339 330 341 2 6 23 47 72 87 89 91 94 94 88 86 93 101 106 110 115 122 124 125 126 128 129 129 130 133 133 136 140
238 238 223 232 223 234 237 224 249 244 297 249 263 288 263 270 308 311 312 318 330 348 344 338 3 21 44 76 81 93 100 100 101 100 103 109 114 111 109 110 112 113 116 118 118 118 119 121 122 122 120 121 126 131
238 206 221 219 215 227 230 216 254 267 277 277 274 276 287 298 306 308 319 331 339 13 324 356 27 31 58 90 95 106 105 105 99 90 93 87 87 114 115 114 111 113 115 117 116 113 117 117 119 122 117 113 119 130
220 190 223 236 259 256 261 271 272 273 272 270 270 270 285 308 312 316 334 347 36 2 3 38 44 29 82 99 110 123 124 87 75 76 95 97 112 113 112 123 125 119 124 125 128 128 132 129 119 122 137 141 141 152
200 207 218 239 258 267 282 251 259 264 275 260 263 265 274 275 277 63 17 136 112 75 20 40 55 48 53 58 101 147 141 74 64 79 76 90 105 91 94 99 108 113 119 127 128 136 143 140 134 130 139 144 160 177
216 222 225 259 256 261 243 251 259 266 240 239 222 205 235 250 342 49 146 187 176 134 45 23 42 70 76 68 96 136 179 154 112 105 131 129 131 111 109 115 123 128 130 127 126 131 137 136 136 134 140 139 157 164
Wind_Speed_850mb
30 31 32 33 33 33 34 35 36 37 39 40 40 41 41 40 37 29 16 25 20 18 43 31 28 32 31 31 19 14 16 28 24 27 29 33 35 39 41 46 44 31 25 26 31 37 37 20 13 16 12 10 13 12
30 31 31 32 32 32 33 34 34 35 36 37 37 38 37 38 37 32 20 24 24 20 32 43 43 41 36 27 32 28 38 30 14 14 17 23 30 32 40 39 44 40 32 26 31 20 30 13 18 19 29 17 8 17
30 31 31 30 28 30 32 34 34 34 33 34 34 33 33 33 34 35 24 31 32 23 48 25 15 12 5 16 29 44 38 34 40 39 25 20 28 22 29 33 36 39 48 35 33 36 34 19 19 23 19 14 17 19
32 30 29 28 29 31 33 33 33 33 33 33 34 35 33 32 31 31 20 24 21 22 14 8 10 14 12 26 28 31 48 60 40 33 30 18 22 25 26 33 30 28 32 34 33 29 49 17 27 27 25 27 29 22
30 30 30 31 32 34 34 35 35 35 35 35 35 35 35 33 30 29 17 12 13 16 16 39 50 36 24 21 26 29 39 41 39 37 26 25 38 33 33 27 25 29 32 19 18 33 35 39 34 30 39 28 31 34
33 33 33 33 34 34 34 34 35 34 34 35 35 34 33 32 30 24 6 2 7 20 18 10 24 28 21 27 32 34 38 43 46 47 37 50 53 40 22 29 47 54 56 43 29 18 8 12 12 10 25 31 33 34
33 34 33 32 31 32 33 34 36 36 37 37 35 34 33 32 27 10 10 10 19 19 12 16 14 11 11 21 25 28 30 29 41 47 46 49 47 39 29 36 41 40 40 60 55 29 20 20 23 19 14 14 22 31
33 32 30 29 31 33 34 37 38 38 38 37 37 37 34 19 6 1 11 7 9 12 10 9 11 30 3 23 21 24 28 35 39 38 42 33 44 49 30 37 49 58 58 51 45 49 31 31 30 17 18 18 25 30
32 28 27 29 32 34 36 38 39 39 39 38 34 22 6 7 4 8 17 18 15 12 11 14 20 21 14 30 27 40 30 20 35 25 31 34 25 26 26 55 57 52 49 51 50 47 42 46 40 32 32 25 26 31
28 27 28 32 33 34 35 37 38 40 39 31 20 10 6 2 14 16 8 6 6 8 10 22 27 19 31 33 29 25 24 20 19 21 40 27 29 51 51 53 45 38 51 54 56 53 51 53 52 51 42 36 36 37
27 29 30 31 32 31 31 33 35 41 28 22 13 8 15 26 8 10 7 10 12 10 14 17 16 13 15 18 17 15 13 13 21 23 26 25 25 31 50 56 61 61 56 52 45 44 47 48 51 55 53 49 44 43
29 30 30 30 30 29 25 29 33 27 22 24 23 22 11 4 9 9 8 9 9 8 5 12 13 20 28 27 14 14 12 10 16 12 13 21 18 23 30 24 18 17 47 63 63 64 59 53 47 46 51 49 44 41
29 30 28 29 29 24 24 27 26 32 34 9 6 6 5 5 4 10 9 10 4 14 9 21 18 21 23 5 11 9 10 14 24 24 31 15 42 50 54 52 40 29 33 33 37 43 48 56 51 41 44 45 40 40
29 28 27 27 22 21 25 29 25 27 13 6 7 6 8 9 11 8 14 9 6 15 29 33 33 25 37 17 9 9 10 11 10 24 24 14 39 51 55 51 47 48 44 39 39 43 48 49 50 52 44 43 42 51
27 26 26 24 21 25 28 28 25 19 9 8 8 8 13 21 19 17 19 22 24 23 27 31 33 28 12 9 7 7 8 12 11 3 5 24 36 47 57 54 54 54 49 40 42 46 48 47 52 53 49 45 47 56
26 23 18 24 27 30 33 31 24 14 9 9 13 15 27 25 25 15 16 22 19 16 22 28 10 8 10 6 5 13 9 12 13 11 27 43 53 70 78 69 66 59 54 50 44 46 48 44 43 49 50 44 59 66
23 10 27 36 33 33 31 20 11 10 10 9 16 22 28 32 27 24 24 23 21 19 16 17 8 12 5 7 8 9 14 25 43 57 58 56 69 80 80 76 75 59 52 51 43 47 45 46 37 54 50 53 55 64
13 22 34 35 35 28 23 9 8 9 13 22 26 24 21 27 30 28 26 24 21 25 18 10 14 9 10 10 16 24 47 57 53 61 67 62 49 47 72 73 62 51 48 45 41 48 43 32 40 54 60 63 67 63
19 27 30 29 25 18 10 6 8 11 16 21 26 29 30 34 32 28 25 22 27 27 10 9 14 16 22 41 47 57 59 63 63 61 48 65 80 84 79 73 60 47 45 42 41 46 45 36 56 63 66 68 66 68
23 22 21 17 13 9 9 7 8 13 15 16 34 29 27 38 36 31 29 32 31 15 14 10 16 48 49 58 63 68 72 75 66 63 64 65 86 91 77 60 51 42 39 40 44 45 47 48 60 64 67 68 73 71
19 14 17 15 17 17 10 8 11 16 22 21 29 31 36 28 30 28 29 27 32 13 17 44 62 65 72 67 74 79 67 52 50 58 83 71 68 63 60 38 31 36 40 40 46 53 67 64 70 68 68 65 66 65
16 22 19 19 8 8 11 13 13 18 16 25 37 24 20 26 26 15 17 31 25 50 61 63 65 55 66 76 72 59 52 72 74 70 59 68 64 44 39 24 30 40 40 44 58 59 56 70 72 74 80 79 67 67
18 16 10 9 7 7 11 8 8 9 9 10 20 11 9 11 13 17 10 21 35 45 38 42 51 59 64 69 71 63 66 59 66 66 60 50 44 50 23 23 37 50 59 63 77 82 86 84 81 83 75 67 66 63
17 7 6 6 10 9 7 9 11 9 9 7 6 8 9 9 18 10 9 19 17 32 41 42 53 53 65 77 67 62 58 71 68 55 30 26 4 24 34 42 78 90 83 78 93 94 86 83 80 67 67 70 62 52
7 8 8 12 12 9 8 7 9 10 8 9 11 9 6 6 5 7 9 15 27 40 47 49 54 61 69 71 77 77 70 50 22 25 34 57 58 80 77 78 79 87 98 104 91 88 75 70 67 70 65 61 56 52
8 11 12 7 6 7 8 7 5 6 10 6 9 10 3 3 6 10 7 21 41 45 49 55 55 63 72 73 75 77 64 44 42 51 64 69 73 86 90 95 90 79 75 78 78 73 72 72 64 61 57 53 49 46
8 11 13 11 10 12 13 20 23 18 10 7 7 5 1 5 7 9 17 27 41 54 50 43 44 48 60 72 67 51 63 68 74 66 61 69 68 77 78 82 81 70 68 73 74 65 60 58 55 52 50 44 39 37
14 10 11 10 12 15 10 11 7 7 7 8 8 6 5 7 7 20 37 54 51 35 31 40 41 42 55 46 53 58 68 75 86 88 84 82 80 84 82 83 84 75 66 60 57 56 55 54 53 50 45 42 38 34
10 9 9 9 14 10 12 13 11 12 7 9 8 6 12 14 38 51 52 44 28 21 26 32 38 50 42 44 54 58 56 60 69 70 70 71 67 58 54 55 61 56 52 59 56 55 54 53 51 47 42 38 35 33
11 18 9 8 9 11 16 24 19 21 24 26 28 36 45 41 38 31 24 18 18 14 18 25 35 48 42 47 44 50 51 52 45 39 45 47 41 56 53 49 48 48 48 46 44 46 47 43 40 37 33 31 29 27
8 17 10 12 12 18 30 26 32 36 40 39 33 36 38 34 23 9 9 5 4 6 12 20 26 34 29 31 32 31 30 27 29 25 29 33 33 37 32 33 40 39 39 41 39 35 31 29 26 22 20 23 18 15
17 21 11 7 9 11 15 14 10 15 14 12 17 17 16 17 17 6 5 3 5 6 9 16 19 17 27 28 15 20 22 10 14 13 19 31 25 28 35 31 31 30 29 27 26 23 20 20 20 19 17 16 13 8
14 19 20 11 9 7 7 7 8 8 15 11 12 19 20 11 6 5 1 8 7 4 4 10 13 13 14 12 15 15 15 6 14 15 23 25 17 14 18 23 19 24 25 26 25 20 15 14 15 12 13 12 13 12
Wind_Direction_850mb
344 345 346 347 349 350 351 352 354 355 356 358 1 4 5 5 8 14 358 351 358 296 286 300 290 281 283 272 273 315 302 236 259 250 244 246 247 250 253 246 248 211 216 236 247 255 248 252 239 233 293 150 172 185
343 343 342 342 344 346 348 349 347 348 350 351 354 358 0 1 2 8 340 333 322 274 269 294 286 267 260 263 285 279 276 310 323 307 256 268 257 249 246 246 240 244 241 225 242 251 228 228 293 263 249 320 174 179
344 342 341 342 346 348 348 348 347 347 346 345 345 348 351 353 353 355 346 332 334 294 299 266 292 239 271 267 257 256 264 271 272 272 300 291 268 269 250 247 254 260 227 252 244 247 270 183 245 269 266 207 264 196
341 344 346 343 342 343 342 342 341 342 341 340 339 338 341 343 343 343 343 326 344 309 283 325 328 295 257 284 275 256 257 268 277 285 276 264 269 261 266 281 274 262 260 251 254 253 269 228 262 240 244 235 226 238
343 341 338 337 336 336 338 339 339 338 336 334 332 329 331 335 338 337 325 308 346 347 310 303 298 284 268 265 266 262 254 261 262 255 247 250 260 270 273 287 270 267 259 258 236 246 257 256 241 248 241 230 232 224
337 337 336 335 335 335 337 336 334 333 332 331 330 327 328 329 335 351 239 313 328 341 302 301 316 285 270 272 275 265 255 251 250 251 254 253 256 256 255 251 254 256 273 278 273 296 331 333 340 253 263 245 224 214
334 334 333 333 335 335 334 334 333 332 332 329 326 321 318 316 315 276 313 260 291 333 282 291 286 166 293 286 268 278 258 251 247 248 243 255 258 237 252 258 254 245 261 258 266 260 247 283 281 226 233 216 177 182
334 332 331 333 333 333 332 332 333 331 329 327 323 317 315 321 13 334 270 289 336 307 272 274 276 280 18 316 312 304 293 274 263 248 249 246 241 251 261 259 250 258 266 271 275 256 268 260 260 237 220 192 192 177
331 331 332 332 333 333 332 331 332 333 332 331 328 335 15 36 267 277 279 295 301 255 283 288 291 300 348 315 308 291 263 269 268 256 240 245 247 230 233 240 254 259 258 265 259 254 253 255 257 251 253 215 214 193
330 329 330 331 333 332 332 335 338 339 342 359 13 306 253 10 295 310 294 212 239 222 237 267 283 295 319 318 300 309 285 260 262 259 248 242 246 250 250 250 257 246 242 247 251 255 256 255 255 246 238 240 239 221
326 327 327 329 329 331 336 340 342 349 6 349 325 295 308 313 304 237 232 226 190 233 203 260 292 317 321 304 319 296 290 306 283 271 253 255 249 241 238 247 252 250 249 254 253 250 254 257 252 248 244 234 240 238
320 323 325 324 326 327 330 338 342 354 329 309 298 293 311 272 236 231 244 236 220 254 57 337 313 314 310 303 281 304 296 269 256 274 266 253 259 295 319 306 285 305 247 251 254 256 255 258 254 252 250 245 229 238
316 320 319 321 323 322 324 328 331 344 349 326 318 278 260 235 304 220 218 248 355 341 312 275 292 279 286 316 274 256 252 250 285 269 261 276 14 0 353 344 326 295 296 292 281 272 256 246 248 247 238 247 221 212
313 316 316 317 317 320 322 327 325 336 339 289 285 284 252 194 256 266 310 355 272 294 301 310 312 298 293 287 255 268 264 309 256 247 252 51 0 346 339 328 326 307 293 294 283 273 257 254 246 244 238 247 213 164
311 314 312 309 307 308 317 322 319 323 290 268 239 251 234 258 287 289 290 294 295 305 311 307 300 282 270 252 238 279 274 253 242 273 301 329 329 332 325 314 308 302 296 288 273 272 267 245 237 225 230 236 191 167
312 323 307 318 316 313 311 312 314 281 255 240 234 247 266 269 281 306 307 303 311 299 302 291 270 270 237 257 249 225 243 244 282 295 302 311 308 314 306 302 298 292 283 281 276 267 269 269 226 218 216 217 166 167
314 313 290 307 314 315 314 316 274 234 245 231 241 245 269 279 288 312 314 311 311 290 280 285 263 235 199 237 231 240 254 273 295 299 295 291 292 289 290 287 295 286 275 274 272 258 265 251 252 193 185 163 162 163
310 299 297 312 322 323 298 254 255 254 248 249 254 269 281 291 293 292 287 289 287 250 260 254 277 245 235 239 253 274 288 290 290 285 287 287 291 298 294 289 290 280 263 262 258 251 260 239 185 163 166 161 155 157
275 263 283 303 315 308 285 247 246 267 257 272 278 284 287 288 291 290 286 275 255 231 221 247 255 242 237 253 267 279 285 292 298 294 298 301 296 297 293 289 283 270 258 255 240 238 229 200 160 161 159 157 156 152
299 300 302 305 290 275 272 254 249 267 280 299 302 291 300 297 289 279 272 258 242 221 215 226 245 262 281 291 291 290 292 297 300 300 294 289 293 293 292 287 270 256 240 229 223 221 197 165 160 157 157 155 151 150
324 291 311 307 267 236 270 280 256 264 293 294 290 296 297 292 276 275 268 258 229 216 239 246 258 267 273 283 294 300 303 299 297 298 293 290 293 291 292 275 252 225 217 212 197 189 168 161 145 148 148 145 145 144
266 282 293 289 257 243 253 244 255 287 281 280 299 304 290 287 293 296 268 246 242 249 251 260 266 288 294 297 304 311 305 301 298 291 290 300 291 291 291 257 222 204 188 178 162 144 141 135 138 139 139 135 137 141
275 287 272 241 248 247 260 257 257 256 265 289 306 295 259 273 284 324 263 258 253 263 283 299 302 297 299 310 317 314 320 308 298 296 302 309 296 294 257 200 180 184 162 144 133 134 128 130 131 132 130 135 141 141
276 249 245 244 225 265 245 231 231 264 277 269 255 265 272 266 312 292 265 285 306 315 311 315 321 320 322 325 321 323 319 320 323 321 317 312 26 158 140 125 122 125 123 129 135 132 132 130 129 135 141 140 138 139
246 230 217 246 229 234 243 241 232 235 264 265 286 269 259 310 286 271 262 303 323 318 323 325 329 329 325 320 320 320 329 341 12 24 56 103 106 113 123 126 126 127 129 127 128 126 130 135 143 141 140 138 139 139
246 214 206 240 242 236 249 271 254 278 299 277 257 265 279 315 269 263 279 318 327 328 328 325 329 327 327 330 331 347 25 63 77 99 100 94 99 100 105 111 115 115 120 126 133 135 135 137 141 141 140 140 141 142
247 238 228 236 261 281 281 270 278 281 278 260 276 270 208 255 254 265 303 318 321 322 322 331 332 336 341 353 22 62 66 72 81 99 102 99 106 108 107 111 117 121 124 124 127 133 135 134 135 135 138 143 148 146
241 249 216 198 218 238 263 287 273 252 227 242 265 256 217 231 274 325 325 319 321 335 339 330 341 2 6 23 47 72 87 89 91 94 94 88 86 93 101 106 110 115 122 124 125 126 128 129 129 130 133 133 136 140
238 238 223 232 223 234 237 224 249 244 297 249 263 288 263 270 308 311 312 318 330 348 344 338 3 21 44 76 81 93 100 100 101 100 103 109 114 111 109 110 112 113 116 118 118 118 119 121 122 122 120 121 126 131
238 206 221 219 215 227 230 216 254 267 277 277 274 276 287 298 306 308 319 331 339 13 324 356 27 31 58 90 95 106 105 105 99 90 93 87 87 114 115 114 111 113 115 117 116 113 117 117 119 122 117 113 119 130
220 190 223 236 259 256 261 271 272 273 272 270 270 270 285 308 312 316 334 347 36 2 3 38 44 29 82 99 110 123 124 87 75 76 95 97 112 113 112 123 125 119 124 125 128 128 132 129 119 122 137 141 141 152
200 207 218 239 258 267 282 251 259 264 275 260 263 265 274 275 277 63 17 136 112 75 20 40 55 48 53 58 101 147 141 74 64 79 76 90 105 91 94 99 108 113 119 127 128 136 143 140 134 130 139 144 160 177
216 222 225 259 256 261 243 251 259 266 240 239 222 205 235 250 342 49 146 187 176 134 45 23 42 70 76 68 96 136 179 154 112 105 131 129 131 111 109 115 123 128 130 127 126 131 137 136 136 134 140 139 157 164